Zurück zum Katalog

NOAA 16 DEB

AktivSSO
NORAD 42425·DEBRIS·🇺🇸 United States

Gestartet Sep 21, 2000 von Vandenberg Space Force Base

Loading…

Nächste Überflüge (nächste 24 Stunden)

TLE

AktuellSource: Space-Track

Epoche: Sep 12, 2026, 07:55 UTC

1 42425U 00055TV  26255.33040066  .00001605  00000-0  77933-3 0  9993
2 42425  98.6959 291.0125 0022551 319.8064  40.1443 14.19594359519103

Verfolge NOAA 16 DEB in Echtzeit mit AllMySat

Download on the App Store